Weather in Stavros

Greece     35°35′13″N   24°05′30″E
temp.,
°C
wind,
m/s
gust,
m/s
humid.,
%
clouds,
%
prec.,
mm/h
press.,
hPa
HPBL,
m
20 may, fri
fri2000:00+15ne686334 0.0 1023857
03:00+15nne696233 0.0 10221239
06:00+14nne7106639 0.0 1022933
09:00+15nne796291 0.1 10231633
12:00+17nne8105642 0.1 10231797
15:00+17n795544 0.3 10221914
18:00+16nne676144 0.2 10211546
21:00+15nne467286 0.4 1020803
21 may, sat
sat2100:00+15nne248052 0.5 1019326
03:00+14s227723 1.3 101984
06:00+14nw12813 0.0 1018395
09:00+17n33710 0.0 1018747
12:00+19nne43601 0.0 1018804
15:00+20nne43590 0.1 1017770
18:00+19nne32602 0.0 1016485
21:00+16wsw11721 0.0 101684
22 may, sun
sun2200:00+16sw23724 0.0 101678
03:00+16s225511 0.0 101419
06:00+16sw22495 0.0 101232
09:00+21wnw12416 0.0 1013310
12:00+22nw55475 0.0 1013747
15:00+23wnw68440 0.0 1012857
18:00+22w794614 0.0 1012554
21:00+19sw45435 0.0 101293
23 may, mon
mon2300:00+19sw454467 0.0 101262
03:00+19sw45455 0.0 101178
06:00+18sw45470 0.0 101185
09:00+23w46420 0.0 1011314
12:00+24wnw67450 0.0 1012712
15:00+24wnw79490 0.0 1011789
18:00+24wnw68480 0.0 1010543
21:00+20wsw46550 0.0 101182
24 may, tue
tue2400:00+20sw45460 0.0 101262
03:00+20sw45490 0.0 101161
06:00+19wsw34590 0.0 101164
09:00+22wnw34590 0.0 1012355
12:00+23nnw33590 0.0 1014558
15:00+23nne33560 0.0 1013540
18:00+23ne33570 0.0 1013351
21:00+20ese22620 0.0 101423